| time (UTC) | temp C | wind direction | speed KPH | gust KPH | rain 1hr cm | rain 24hr cm | rain mn cm | humidity % | barometer mb |
| 20260503045959 | 7 | 215 | 0.0 | 0.0 | 0.00 | 3.81 | 0.00 | 97 | 1013.7 |
| 20260503044430 | 7 | 215 | 0.0 | 0.0 | 0.00 | 3.81 | 0.00 | 97 | 1013.7 |
| 20260503043000 | 7 | 215 | 0.0 | 0.0 | 0.00 | 3.81 | 0.00 | 97 | 1013.7 |
| 20260503041430 | 7 | 215 | 0.0 | 0.0 | 0.00 | 3.81 | 0.00 | 97 | 1013.8 |
| 20260503035922 | 7 | 215 | 0.0 | 0.0 | 0.00 | 3.81 | 0.00 | 97 | 1013.8 |
| 20260503034435 | 7 | 215 | 0.0 | 0.0 | 0.00 | 3.81 | 0.00 | 97 | 1013.8 |
| 20260503032931 | 7 | 215 | 0.0 | 0.0 | 0.00 | 3.81 | 0.00 | 97 | 1013.8 |
| 20260503031435 | 7 | 215 | 0.0 | 0.0 | 0.00 | 3.81 | 0.00 | 97 | 1013.8 |
| 20260503025930 | 7 | 215 | 0.0 | 0.0 | 0.00 | 3.81 | 0.00 | 97 | 1013.8 |
| 20260503024438 | 7 | 215 | 0.0 | 0.0 | 0.00 | 3.81 | 0.00 | 97 | 1014.1 |
| 20260503022929 | 7 | 215 | 0.0 | 0.0 | 0.00 | 3.81 | 0.00 | 97 | 1014.2 |
| 20260503021500 | 7 | 215 | 0.0 | 0.0 | 0.00 | 3.81 | 0.00 | 97 | 1014.1 |
| 20260503015926 | 7 | 215 | 0.0 | 0.0 | 0.00 | 3.81 | 0.00 | 97 | 1014.2 |
| 20260503014438 | 8 | 215 | 0.0 | 0.0 | 0.00 | 3.81 | 0.00 | 97 | 1014.1 |
| 20260503012947 | 8 | 215 | 0.0 | 0.0 | 0.00 | 3.81 | 0.00 | 97 | 1014.3 |
| 20260503011439 | 8 | 215 | 0.0 | 0.0 | 0.00 | 3.81 | 0.00 | 97 | 1014.4 |
| 20260503005931 | 8 | 215 | 0.0 | 0.0 | 0.00 | 3.81 | 0.00 | 97 | 1014.5 |
| 20260503004423 | 8 | 215 | 0.0 | 0.0 | 0.00 | 3.81 | 0.00 | 97 | 1014.5 |
| 20260503002933 | 8 | 215 | 0.0 | 0.0 | 0.00 | 3.81 | 0.00 | 96 | 1014.6 |
| 20260503001423 | 8 | 215 | 0.0 | 0.0 | 0.00 | 3.81 | 0.00 | 96 | 1014.7 |
| 20260502235932 | 8 | 215 | 0.0 | 0.0 | 0.00 | 3.81 | 0.76 | 96 | 1014.6 |
| 20260502234423 | 8 | 215 | 0.0 | 1.6 | 0.00 | 3.81 | 0.76 | 96 | 1014.8 |
| 20260502232934 | 9 | 215 | 0.0 | 0.0 | 0.00 | 3.81 | 0.76 | 96 | 1014.7 |
| 20260502231445 | 9 | 215 | 0.0 | 0.0 | 0.00 | 3.81 | 0.76 | 96 | 1014.8 |
| 20260502225936 | 9 | 215 | 0.0 | 0.0 | 0.00 | 3.81 | 0.76 | 94 | 1014.9 |
| 20260502224427 | 9 | 215 | 0.0 | 0.0 | 0.00 | 3.81 | 0.76 | 93 | 1014.9 |
| 20260502222939 | 9 | 215 | 0.0 | 0.0 | 0.00 | 3.81 | 0.76 | 94 | 1014.7 |
| 20260502221430 | 8 | 215 | 0.0 | 0.0 | 0.00 | 3.81 | 0.76 | 93 | 1014.8 |
| 20260502220000 | 8 | 215 | 0.0 | 0.0 | 0.00 | 3.81 | 0.76 | 93 | 1014.9 |
| 20260502214427 | 9 | 215 | 0.0 | 0.0 | 0.00 | 3.81 | 0.76 | 93 | 1014.9 |
| 20260502212959 | 9 | 215 | 0.0 | 0.0 | 0.00 | 3.81 | 0.76 | 93 | 1014.8 |
| 20260502211427 | 9 | 215 | 0.0 | 0.0 | 0.00 | 3.81 | 0.76 | 92 | 1014.7 |
| 20260502205939 | 10 | 215 | 0.0 | 0.0 | 0.00 | 3.81 | 0.76 | 92 | 1014.7 |
| 20260502204427 | 10 | 215 | 0.0 | 0.0 | 0.00 | 3.81 | 0.76 | 91 | 1014.6 |
| 20260502202939 | 10 | 217 | 0.0 | 0.0 | 0.00 | 3.81 | 0.76 | 91 | 1014.4 |
| 20260502201430 | 11 | 217 | 0.0 | 0.0 | 0.00 | 3.81 | 0.76 | 91 | 1014.4 |
| 20260502195939 | 11 | 217 | 0.0 | 0.0 | 0.00 | 3.81 | 0.76 | 91 | 1014.4 |
| 20260502194430 | 11 | 217 | 0.0 | 0.0 | 0.00 | 3.81 | 0.76 | 90 | 1014.3 |
| 20260502192921 | 11 | 217 | 0.0 | 0.0 | 0.00 | 3.81 | 0.76 | 89 | 1014.2 |
| 20260502191432 | 11 | 218 | 0.0 | 0.0 | 0.00 | 3.81 | 0.76 | 89 | 1014.1 |
| 20260502185921 | 11 | 218 | 0.0 | 0.0 | 0.00 | 3.81 | 0.76 | 87 | 1014.1 |
| 20260502184450 | 11 | 218 | 0.0 | 1.6 | 0.00 | 3.81 | 0.76 | 86 | 1014.1 |
| 20260502182937 | 12 | 210 | 0.0 | 0.0 | 0.00 | 3.81 | 0.76 | 85 | 1014.0 |
| 20260502181429 | 12 | 209 | 0.0 | 1.6 | 0.00 | 3.81 | 0.76 | 86 | 1013.9 |
| 20260502162958 | 12 | 183 | 0.0 | 0.0 | 0.00 | 3.81 | 0.76 | 95 | 1014.5 |
| 20260502161433 | 12 | 183 | 0.0 | 0.0 | 0.00 | 3.81 | 0.76 | 95 | 1014.6 |
| 20260502151452 | 12 | 148 | 0.0 | 0.0 | 0.00 | 3.81 | 0.76 | 95 | 1015.3 |
| 20260502122939 | 14 | 138 | 0.0 | 1.6 | 0.10 | 3.20 | 0.64 | 77 | 1015.2 |
| 20260502121432 | 15 | 203 | 0.0 | 1.6 | 0.00 | 3.10 | 0.61 | 75 | 1015.5 |
| 20260502114430 | 16 | 128 | 0.0 | 4.8 | 0.00 | 3.10 | 0.61 | 72 | 1015.7 |
| 20260502112939 | 16 | 129 | 0.0 | 4.8 | 0.00 | 3.10 | 0.61 | 74 | 1015.9 |
| 20260502111432 | 15 | 134 | 0.0 | 3.2 | 0.00 | 3.10 | 0.61 | 77 | 1016.1 |
| 20260502105940 | 15 | 130 | 0.0 | 1.6 | 0.00 | 3.10 | 0.61 | 77 | 1016.3 |
| 20260502104427 | 15 | 139 | 0.0 | 8.0 | 0.00 | 3.10 | 0.61 | 79 | 1016.7 |
| 20260502102939 | 13 | 136 | 1.6 | 4.8 | 0.00 | 3.10 | 0.61 | 81 | 1017.0 |
| 20260502101431 | 13 | 128 | 0.0 | 1.6 | 0.00 | 3.10 | 0.61 | 80 | 1017.1 |
| 20260502091438 | 11 | 80 | 0.0 | 1.6 | 0.51 | 3.10 | 0.61 | 89 | 1017.7 |
| 20260502071439 | 9 | 215 | 0.0 | 1.6 | 0.79 | 1.60 | 0.33 | 92 | 1017.8 |
| 20260502065930 | 9 | 330 | 0.0 | 1.6 | 0.71 | 1.40 | 0.28 | 93 | 1018.3 |
| 20260502064440 | 9 | 235 | 1.6 | 4.8 | 0.41 | 1.09 | 0.23 | 93 | 1018.6 |
| 20260502062928 | 9 | 232 | 0.0 | 0.0 | 0.41 | 0.89 | 0.18 | 93 | 1018.3 |
| 20260502061439 | 9 | 232 | 0.0 | 0.0 | 0.79 | 0.79 | 0.15 | 92 | 1018.4 |
| 20260502055927 | 9 | 232 | 0.0 | 0.0 | 0.71 | 0.71 | 0.15 | 92 | 1018.3 |
| 20260502054436 | 9 | 359 | 0.0 | 3.2 | 0.71 | 0.71 | 0.15 | 90 | 1018.0 |
| 20260502052924 | 9 | 132 | 0.0 | 11.3 | 0.51 | 0.51 | 0.10 | 89 | 1017.9 |
| 20260502051436 | 8 | 231 | 1.6 | 6.4 | 0.00 | 0.00 | 0.00 | 93 | 1018.3 |